SCP
0 0 0 0 0 0 0 0 0 0 0 0 0 0 0 0 0 0 0 0 0 0 0 0 0 0 0 0 0 0 0 0 0 0 0 0 0 0
0 0 0 0 0 0 0 0 0 0 0 0 0 0 0 0 0 0 0 0 0 0 0 0 0 0 0 0 0 0 0 0 0 0 0 0 0 0
0 0 0 0 0 0 0 0 0 0 0 0 0 0 0 0 0 0 0 0 0 0 0 0 0 0 0 0 0 0 0 0 0 0 0 0 0 0
0 0 0 0 0 0 0 0 0 0 0 0 0 0 0 0 0 0 0 0 0 0 0 0 0 0 0 0 0 0 0 0 0 0 0 0 0 0
0 0 0 0 0 0 0 0 0 0 0 0 0 0 0 0 0 0 0 0 0 0 0 0 0 0 0 0 0 0 0 0 0 0 0 0 0 0
0 0 0 0 0 0 0 0 0 0 0 0 0 0 0 0 0 0 0 0 0 0 0 0 0 0 0 0 0 0 0 0 0 0 0 0 0 0
0 0 0 0 0 0 0 0 0 0 0 0 0 0 0 0 0 0 0 0 0 0 0 0 0 0 0 0 0 0 0 0 0 0 0 0 0 0
0 0 0 0 0 0 0 0 0 0 0 0 0 0 0 0 0 0 0 0 0 0 0 0 0 0 0 0 0 0 0 0 0 0 0 0 0 0
0 0 0 0 0 0 0 0 0 0 0 0 0 0 0 0 0 0 0 0 0 0 0 0 0 0 0 0 0 0 0 0 0 0 0 0 0 0
0 0 0 0 0 0 0 0 0 0 0 0 0 0 0 0 0 0 0 0 0 0 0 0 0 0 0 0 0 0 0 0 0 0 0 0 0 0
0 0 0 0 0 0 0 0 0 0 0 0 0 0 0 0 0 0 0 0 0 0 0 0 0 0 0 0 0 0 0 0 0 0 0 0 0 0
0 0 0 0 0 0 0 0 0 0 0 0 0 0 0 0 0 0 0 0 0 0 0 0 0 0 0 0 0 0 0 0 0 0 0 0 0 0
0 0 0 0 0 0 0 0 0 0 0 0 0 0 0 0 0 0 0 0 0 0 0 0 0 0 0 0 0 0 0 0 0 0 0 0 0 0
0 0 0 0 0 0 0 0 0 0 0 0 0 0 0 0 0 0 0 0 0 0 0 0 0 0 0 0 0 0 0 0 0 0 0 0 0 0
0 0 0 0 0 0 0 0 0 0 0 0 0 0 0 0 0 0 0 0 0 0 0 0 0 0 0 0 0 0 0 0 0 0 0 0 0 0
0 0 0 0 0 0 0 0 0 0 0 0 0 0 0 0 0 0 0 0 0 0 0 0 0 0 0 0 0 0 0 0 0 0 0 0 0 0
0 0 0 0 0 0 0 0 0 0 0 0 0 0 0 0 0 0 0 0 0 0 0 0 0 0 0 0 0 0 0 0 0 0 0 0 0 0
0 0 0 0 0 0 0 0 0 0 0 0 0 0 0 0 0 0 0 0 0 0 0 0 0 0 0 0 0 0 0 0 0 0 0 0 0 0
0 0 0 0 0 0 0 0 0 0 0 0 0 0 0 0 0 0 0 0 0 0 0 0 0 0 0 0 0 0 0 0 0 0 0 0 0 0
0 0 0 0 0 0 0 0 0 0 0 0 0 0 0 0 0 0 0 0 0 0 0 0 0 0 0 0 0 0 0 0 0 0 0 0 0 0
0 0 0 0 0 0 0 0 0 0 0 0 0 0 0 0 0 0 0 0 0 0 0 0 0 0 0 0 0 0 0 0 0 0 0 0 0 0
0 0 0 0 0 0 0 0 0 0 0 0 0 0 0 0 0 0 0 0 0 0 0 0 0 0 0 0 0 0 0 0 0 0 0 0 0 0
0 0 0 0 0 0 0 0 0 0 0 0 0 0 0 0 0 0 0 0 0 0 0 0 0 0 0 0 0 0 0 0 0 0 0 0 0 0
Wind_Speed
6 7 7 6 6 7 7 7 8 10 10 7 6 7 10 8 15 12 10 21 24 24 23 22 21 21 20 19 18 17 16 15 14 13 11 10 9 9
5 7 7 6 6 6 7 7 8 10 13 5 9 7 9 10 16 11 13 22 23 24 24 23 23 22 21 21 19 18 17 17 15 14 13 11 11 10
8 8 8 8 7 6 6 7 8 8 14 8 5 6 8 10 9 10 9 12 12 23 24 24 24 23 23 22 21 20 19 18 17 16 14 13 12 11
11 9 10 8 9 7 7 8 8 8 11 14 7 6 10 10 12 12 10 11 9 20 26 25 25 25 24 23 22 21 20 19 18 17 16 15 14 12
11 11 11 9 11 8 9 9 7 8 9 11 10 6 7 5 7 8 8 7 8 14 23 26 26 26 26 25 24 22 20 20 19 18 17 16 16 14
12 12 12 11 12 11 10 10 9 9 9 11 10 6 6 4 6 8 8 9 9 10 17 20 22 25 27 26 25 22 22 22 21 20 19 18 17 16
14 13 13 16 19 16 13 10 9 10 9 10 11 7 8 6 8 7 11 9 10 10 11 11 11 12 17 24 25 24 25 25 23 22 21 20 18 17
18 16 15 15 20 26 28 26 21 15 13 12 12 13 12 11 7 8 9 9 11 10 10 11 10 14 13 13 23 29 29 27 26 24 23 22 20 19
19 18 17 15 15 14 20 27 25 27 28 19 18 19 14 9 11 12 12 13 10 7 10 13 13 17 13 16 29 31 31 30 28 26 25 24 22 21
19 20 20 20 18 20 18 18 18 19 21 17 18 18 14 9 11 15 15 14 8 7 13 11 11 14 11 12 27 32 31 31 29 28 27 26 24 22
19 19 20 20 26 30 24 21 21 20 24 30 30 28 28 25 16 9 12 11 13 11 10 8 5 7 8 11 16 29 31 31 30 29 28 27 25 23
15 17 21 24 27 29 21 19 21 20 16 15 20 24 22 22 26 18 15 15 10 11 12 10 5 6 5 6 9 11 18 26 30 30 29 28 27 15
14 13 14 26 30 31 29 21 25 24 17 16 16 16 14 13 14 16 16 16 15 12 8 12 8 7 5 4 7 10 11 12 16 20 26 30 29 21
16 15 16 29 32 33 27 27 34 31 17 15 15 15 14 13 12 13 16 17 16 12 10 13 9 10 9 6 5 8 10 10 11 12 12 24 26 27
17 26 31 35 34 25 28 33 27 18 16 17 17 16 13 11 10 10 12 14 14 9 10 14 11 11 11 10 7 6 9 10 11 10 12 13 14 15
19 22 32 34 30 27 22 20 16 15 17 17 15 13 9 9 10 10 11 11 11 10 10 14 14 15 13 9 9 8 9 9 12 11 11 10 8 9
19 15 13 13 13 13 13 13 13 14 16 15 14 13 11 11 11 10 11 10 11 10 8 7 8 6 8 10 9 10 9 8 9 12 10 11 11 11
23 13 13 12 13 13 13 13 12 13 14 12 11 11 11 11 10 9 10 11 11 10 10 8 8 6 3 0 8 10 10 9 8 10 8 11 12 10
13 11 12 13 14 14 12 12 12 12 12 11 10 9 9 9 9 10 10 10 10 9 9 9 10 11 13 11 6 9 10 9 10 10 10 7 10 11
9 12 13 14 14 13 12 11 11 11 11 11 10 9 9 9 9 10 10 10 9 8 9 9 11 12 14 10 7 6 14 11 11 12 10 6 5 10
12 12 13 14 13 12 12 11 10 10 11 10 9 8 8 8 9 9 9 11 9 9 11 11 8 7 5 7 7 5 6 12 11 9 11 9 7 7
12 13 13 14 14 12 10 8 9 9 10 9 8 6 6 6 7 9 9 10 9 8 8 7 9 8 6 7 7 8 8 8 9 12 10 7 6 8
12 13 13 13 13 12 10 8 7 6 5 5 4 3 3 3 4 6 7 8 8 8 9 9 8 6 5 6 7 8 11 10 7 7 6 8 10 8
Wind_Direction
283 279 277 273 261 252 243 227 238 260 259 222 233 227 222 215 217 213 210 217 215 214 212 210 211 212 213 213 211 207 204 201 198 197 193 187 181 174
290 280 276 271 265 256 251 245 237 250 264 225 222 222 215 216 219 215 214 217 219 217 214 211 210 212 212 212 212 209 206 204 201 200 197 193 189 183
303 292 282 275 271 262 252 251 250 245 262 261 230 218 211 216 217 212 208 210 217 218 216 213 211 211 212 213 212 210 208 206 203 201 200 197 195 191
299 296 289 285 275 268 259 253 251 246 257 268 252 222 219 215 215 213 208 210 212 218 218 217 215 213 213 213 213 211 209 207 204 202 201 200 199 196
288 287 286 284 282 275 266 263 257 250 248 260 260 230 224 211 210 215 207 204 207 220 222 221 219 217 214 213 212 210 208 206 204 203 203 203 201 198
282 279 277 274 275 275 274 269 264 258 251 255 257 233 220 206 200 205 207 203 210 211 224 225 223 221 219 216 213 210 207 205 204 202 203 204 202 199
283 278 274 271 269 272 272 270 265 264 259 257 256 236 220 206 212 195 210 203 216 208 215 219 216 217 216 219 212 208 207 205 204 202 202 203 203 201
285 284 280 275 274 276 275 273 267 262 258 255 257 249 240 221 212 204 205 197 220 202 201 219 210 219 217 214 213 208 207 205 203 202 201 202 202 201
287 285 283 280 280 278 278 277 274 268 262 256 254 252 249 224 212 215 211 212 217 168 184 220 213 224 215 216 214 211 206 204 202 201 201 201 200 200
286 285 284 283 281 282 280 273 267 264 261 258 256 257 251 235 220 220 217 221 220 188 183 211 208 218 213 211 217 213 209 204 202 201 200 199 199 199
286 284 283 283 282 282 279 274 272 268 268 262 255 256 255 249 233 220 217 212 223 212 193 210 207 197 202 210 215 216 212 207 203 201 199 198 197 197
288 286 285 285 286 286 280 274 270 268 265 264 261 260 257 252 242 227 219 220 221 217 193 194 180 159 198 207 201 208 212 211 205 202 199 197 194 190
285 286 285 289 289 289 285 279 276 277 270 260 256 252 246 241 236 231 224 223 224 222 188 180 180 174 181 179 198 203 204 201 200 201 200 197 195 188
284 284 281 283 283 283 282 278 282 282 274 264 253 246 240 236 232 228 227 227 229 222 184 178 185 183 180 176 192 201 205 202 197 194 191 196 197 195
275 274 277 281 283 283 280 279 280 276 269 261 253 246 238 230 222 223 226 229 229 220 192 185 184 188 195 201 184 181 191 203 199 192 187 190 189 188
276 274 275 276 275 273 272 273 269 267 263 256 252 249 237 222 217 215 220 220 222 213 200 197 195 193 199 196 186 186 187 189 192 193 187 187 186 186
287 278 272 266 259 257 256 256 257 264 264 250 244 241 234 224 218 210 210 211 213 206 189 185 183 184 198 184 187 191 190 196 191 185 181 188 192 189
302 291 288 283 275 268 261 257 255 259 266 260 245 237 230 223 217 207 205 205 207 200 186 171 157 142 104 308 194 186 187 189 187 183 181 187 189 185
318 304 296 290 284 276 266 260 258 258 263 264 254 240 232 222 214 208 202 200 199 193 180 173 176 181 193 201 193 199 184 177 176 181 185 186 186 178
312 305 301 296 288 280 270 261 258 260 263 263 258 247 232 220 212 205 199 195 190 181 174 177 189 195 205 201 167 184 188 176 175 177 175 159 139 150
317 311 307 305 296 283 271 262 256 256 259 260 258 248 233 218 210 201 193 184 179 179 183 186 183 157 119 117 125 139 168 179 175 173 163 151 144 152
319 318 317 316 316 307 291 271 260 257 257 255 252 243 228 214 203 191 185 183 182 177 169 153 142 142 149 168 160 147 143 145 142 136 130 128 147 160
325 323 323 326 330 333 330 319 302 288 277 267 254 236 211 195 182 176 174 171 165 155 146 143 145 148 155 162 152 148 146 141 129 118 98 85 87 94